EW0725 Weather Reports


Display with metric or nautical units.
time (UTC)temp
F
wind
direction
speed
MPH
gust
MPH
rain 1hr
in
rain 24hr
in
rain mn
in
humidity
%
barometer
mb
20220519014521 64 0.0 0.0 0.00 0.00 0.00 88 1017.4
20220519013521 64 125 0.0 3.0 0.00 0.00 0.00 88 1017.4
20220519012518 64 104 1.0 3.0 0.00 0.00 0.00 88 1017.4
20220519011518 64 53 1.0 3.0 0.00 0.00 0.00 88 1017.5
20220519010518 64 46 1.0 3.0 0.00 0.00 0.00 88 1017.6
20220519005519 64 59 1.0 5.0 0.00 0.00 0.00 88 1017.8
20220519004518 64 105 1.0 3.0 0.00 0.00 0.00 89 1017.8
20220519003518 64 75 0.0 2.0 0.00 0.00 0.00 89 1017.9
20220519002519 64 12 0.0 2.0 0.00 0.00 0.00 89 1018.1
20220519001519 64 33 1.0 3.0 0.00 0.00 0.00 88 1018.2
20220519000518 64 31 1.0 3.0 0.00 0.00 0.00 88 1018.2
20220518235519 63 14 1.0 4.0 0.00 0.00 0.00 88 1018.3
20220518234519 63 130 0.0 2.0 0.00 0.00 0.00 89 1018.3
20220518233519 64 352 0.0 0.0 0.00 0.00 0.00 88 1018.4
20220518232519 64 0.0 0.0 0.00 0.00 0.00 88 1018.4
20220518231519 64 0.0 0.0 0.00 0.00 0.00 86 1018.6
20220518230522 64 0.0 0.0 0.00 0.00 0.00 85 1018.7
20220518225519 65 11 0.0 2.0 0.00 0.00 0.00 85 1018.8
20220518224517 65 0.0 0.0 0.00 0.00 0.00 84 1018.8
20220518223517 65 0.0 0.0 0.00 0.00 0.00 84 1018.8
20220518222523 66 0.0 0.0 0.00 0.00 0.00 83 1019.0
20220518221520 66 0.0 0.0 0.00 0.00 0.00 83 1019.1
20220518220517 67 0.0 0.0 0.00 0.00 0.00 82 1019.2
20220518215517 67 0.0 0.0 0.00 0.00 0.00 80 1019.3
20220518214517 67 0.0 0.0 0.00 0.00 0.00 80 1019.2
20220518213521 68 0.0 0.0 0.00 0.00 0.00 79 1019.2
20220518212521 68 0.0 0.0 0.00 0.00 0.00 79 1019.4
20220518211518 68 0.0 0.0 0.00 0.00 0.00 79 1019.2
20220518210518 68 0.0 0.0 0.00 0.00 0.00 78 1019.3
20220518205518 68 0.0 0.0 0.00 0.00 0.00 78 1019.2
20220518204519 68 0.0 0.0 0.00 0.00 0.00 77 1019.2
20220518203519 69 0.0 0.0 0.00 0.00 0.00 78 1019.1
20220518202518 69 0.0 0.0 0.00 0.00 0.00 78 1019.2
20220518201519 69 0.0 0.0 0.00 0.00 0.00 77 1019.2
20220518200519 70 0.0 0.0 0.00 0.00 0.00 76 1019.3
20220518195520 70 34 0.0 1.0 0.00 0.00 0.00 76 1019.3
20220518194519 70 0.0 0.0 0.00 0.00 0.00 76 1019.3
20220518193519 71 214 0.0 1.0 0.00 0.00 0.00 75 1019.3
20220518192519 71 0.0 0.0 0.00 0.00 0.00 74 1019.2
20220518191520 71 251 0.0 1.0 0.00 0.00 0.00 73 1019.2
20220518190520 72 219 0.0 1.0 0.00 0.00 0.00 72 1019.3
20220518185520 73 206 0.0 1.0 0.00 0.00 0.00 71 1019.3
20220518184517 73 210 0.0 2.0 0.00 0.00 0.00 70 1019.2
20220518183517 74 175 0.0 1.0 0.00 0.00 0.00 69 1019.2
20220518182524 75 234 0.0 3.0 0.00 0.00 0.00 69 1019.2
20220518181520 76 216 0.0 2.0 0.00 0.00 0.00 68 1019.2
20220518180529 77 220 1.0 3.0 0.00 0.00 0.00 67 1019.1
20220518175527 77 182 0.0 2.0 0.00 0.00 0.00 66 1019.1
20220518174518 78 186 0.0 2.0 0.00 0.00 0.00 64 1019.0
20220518173518 78 198 0.0 2.0 0.00 0.00 0.00 64 1019.0
20220518172523 79 150 0.0 2.0 0.00 0.00 0.00 63 1018.9
20220518171519 80 181 1.0 3.0 0.00 0.00 0.00 63 1019.0
20220518170522 80 200 0.0 2.0 0.00 0.00 0.00 62 1019.0
20220518165523 81 166 0.0 3.0 0.00 0.00 0.00 61 1018.9
20220518164518 81 5 0.0 3.0 0.00 0.00 0.00 61 1019.0
20220518163518 80 237 0.0 3.0 0.00 0.00 0.00 61 1019.0
20220518162518 80 235 0.0 2.0 0.00 0.00 0.00 62 1019.0
20220518161519 81 261 1.0 3.0 0.00 0.00 0.00 60 1018.9
20220518160519 82 247 1.0 3.0 0.00 0.00 0.00 59 1018.9
20220518155517 83 206 1.0 3.0 0.00 0.00 0.00 58 1018.9
20220518154525 84 170 1.0 4.0 0.00 0.00 0.00 57 1018.8
20220518153520 83 264 1.0 5.0 0.00 0.00 0.00 53 1018.8
20220518152523 82 278 1.0 5.0 0.00 0.00 0.00 53 1018.8
20220518151520 81 249 1.0 3.0 0.00 0.00 0.00 54 1018.9
20220518150517 82 271 1.0 6.0 0.00 0.00 0.00 54 1018.9
20220518145521 82 256 2.0 5.0 0.00 0.00 0.00 53 1018.8
20220518144518 82 242 2.0 5.0 0.00 0.00 0.00 53 1018.9
20220518143517 83 248 1.0 4.0 0.00 0.00 0.00 52 1018.9
20220518142522 84 270 1.0 5.0 0.00 0.00 0.00 51 1018.9
20220518141521 84 249 1.0 4.0 0.00 0.00 0.00 49 1018.9
20220518140518 84 209 2.0 7.0 0.00 0.00 0.00 48 1018.9
20220518135524 84 285 2.0 7.0 0.00 0.00 0.00 48 1019.0
20220518134522 83 272 1.0 6.0 0.00 0.00 0.00 48 1019.1
20220518133519 83 245 2.0 9.0 0.00 0.00 0.00 49 1019.1
20220518132522 82 204 2.0 4.0 0.00 0.00 0.00 50 1019.2
20220518131519 82 234 1.0 4.0 0.00 0.00 0.00 50 1019.2
20220518130517 82 228 2.0 7.0 0.00 0.00 0.00 49 1019.2
20220518125519 82 221 2.0 6.0 0.00 0.00 0.00 48 1019.2
20220518124520 84 230 1.0 6.0 0.00 0.00 0.00 48 1019.1
20220518123520 85 224 2.0 6.0 0.00 0.00 0.00 47 1019.1
20220518122520 84 147 2.0 6.0 0.00 0.00 0.00 48 1019.2
20220518121519 83 196 2.0 5.0 0.00 0.00 0.00 48 1019.2
20220518120523 83 124 1.0 4.0 0.00 0.00 0.00 48 1019.3
20220518115517 82 261 3.0 7.0 0.00 0.00 0.00 48 1019.4
20220518114517 83 161 2.0 5.0 0.00 0.00 0.00 48 1019.5
20220518113520 82 206 2.0 6.0 0.00 0.00 0.00 49 1019.5
20220518112526 82 207 2.0 6.0 0.00 0.00 0.00 49 1019.6
20220518111519 82 187 3.0 8.0 0.00 0.00 0.00 49 1019.7
20220518110518 81 245 2.0 6.0 0.00 0.00 0.00 50 1019.9
20220518105519 81 225 3.0 7.0 0.00 0.00 0.00 50 1020.0
20220518104518 81 197 2.0 6.0 0.00 0.00 0.00 52 1019.9
20220518103518 81 198 2.0 6.0 0.00 0.00 0.00 52 1019.9
20220518102524 81 166 2.0 5.0 0.00 0.00 0.00 52 1019.9
20220518101518 80 195 2.0 4.0 0.00 0.00 0.00 54 1019.9
20220518100521 80 255 2.0 7.0 0.00 0.00 0.00 54 1020.0
20220518095518 79 247 1.0 6.0 0.00 0.00 0.00 55 1020.0
20220518094519 80 266 2.0 6.0 0.00 0.00 0.00 55 1020.0
20220518093519 80 185 2.0 6.0 0.00 0.00 0.00 54 1020.1
20220518092528 80 151 1.0 4.0 0.00 0.00 0.00 55 1020.1
20220518091519 80 170 1.0 6.0 0.00 0.00 0.00 54 1020.1
20220518090519 79 159 1.0 5.0 0.00 0.00 0.00 54 1020.1
20220518085519 78 195 2.0 4.0 0.00 0.00 0.00 56 1020.1
20220518084519 78 166 2.0 5.0 0.00 0.00 0.00 55 1020.1
20220518083519 78 136 2.0 6.0 0.00 0.00 0.00 57 1020.1
20220518082519 77 168 2.0 5.0 0.00 0.00 0.00 57 1020.2
20220518081519 76 191 1.0 4.0 0.00 0.00 0.00 57 1020.2
20220518080520 76 228 2.0 6.0 0.00 0.00 0.00 58 1020.2
20220518075519 76 175 1.0 6.0 0.00 0.00 0.00 59 1020.2
20220518074520 75 224 1.0 5.0 0.00 0.00 0.00 60 1020.1
20220518073517 75 160 1.0 5.0 0.00 0.00 0.00 61 1020.1
20220518072518 74 169 1.0 5.0 0.00 0.00 0.00 62 1020.1
20220518071517 73 159 1.0 4.0 0.00 0.00 0.00 63 1020.1
20220518070520 72 138 1.0 4.0 0.00 0.00 0.00 65 1020.2
20220518065521 71 161 1.0 3.0 0.00 0.00 0.00 67 1020.1
20220518064517 69 139 1.0 4.0 0.00 0.00 0.00 69 1020.2
20220518063518 68 162 1.0 4.0 0.00 0.00 0.00 71 1020.4
20220518062517 67 129 1.0 3.0 0.00 0.00 0.00 72 1020.3
20220518061518 67 146 1.0 4.0 0.00 0.00 0.00 74 1020.3
20220518060518 66 110 1.0 4.0 0.00 0.00 0.00 75 1020.2
20220518055518 65 153 1.0 4.0 0.00 0.00 0.00 76 1020.1
20220518054518 64 121 1.0 4.0 0.00 0.00 0.00 78 1020.1
20220518053518 64 161 0.0 2.0 0.00 0.00 0.00 79 1020.1
20220518052519 63 145 1.0 3.0 0.00 0.00 0.00 80 1020.0
20220518051519 63 122 1.0 3.0 0.00 0.00 0.00 80 1020.0
20220518050518 62 129 1.0 4.0 0.00 0.00 0.00 81 1020.0
20220518045519 62 118 0.0 4.0 0.00 0.00 0.00 82 1019.9
20220518044519 62 128 1.0 3.0 0.00 0.00 0.00 83 1019.8
20220518043519 61 121 1.0 4.0 0.00 0.00 0.00 83 1019.7
20220518042519 61 115 0.0 3.0 0.00 0.00 0.00 85 1019.6
20220518041519 61 125 0.0 3.0 0.00 0.00 0.00 85 1019.4
20220518040516 61 123 1.0 3.0 0.00 0.00 0.00 84 1019.3
20220518035516 61 135 1.0 3.0 0.00 0.00 0.00 84 1019.3
20220518034517 61 125 1.0 4.0 0.00 0.00 0.00 84 1019.2
20220518033520 61 117 1.0 5.0 0.00 0.00 0.00 84 1019.2
20220518032517 61 118 1.0 3.0 0.00 0.00 0.00 85 1019.2
20220518031517 61 115 1.0 3.0 0.00 0.00 0.00 84 1019.1
20220518030517 61 119 1.0 4.0 0.00 0.00 0.00 84 1019.1
20220518025517 61 112 1.0 3.0 0.00 0.00 0.00 85 1019.2
20220518024519 61 122 1.0 3.0 0.00 0.00 0.00 85 1019.1
20220518023517 61 127 0.0 2.0 0.00 0.00 0.00 84 1019.2
20220518022520 61 109 1.0 3.0 0.00 0.00 0.00 84 1019.2
20220518021518 61 109 1.0 3.0 0.00 0.00 0.00 84 1019.3
20220518020518 61 122 1.0 2.0 0.00 0.00 0.00 83 1019.3
20220518015518 62 86 1.0 2.0 0.00 0.00 0.00 83 1019.2